Location: Bun Machan
(52.1403°N, 7.3744°W)
Time: 02:46:20
(UTC+00:00)

Cosmos 1500 Rocket - Pass Details

Date: 14 July 2020
Orbit: 602 x 632 km, 82.5° (Epoch: 04 August)

Event Time Altitude Azimuth Distance (km) Brightness Sun altitude
Exits shadow 00:20:50 23° 215° (SW) 1,331 4.8 -16.2°
Maximum altitude 00:23:25 54° 284° (WNW) 750 4.0 -16.2°
Drops below altitude 10° 00:27:42 10° 3° (N) 1,976 7.5 -16.2°
Sets 00:29:58 0° 8° (N) 2,881 8.7 -16.2°
